Regional Weather Roundup
Issued by NWS Wilmington, NC

Home | Current Version | Previous Version | Text Only | Print | Product List | Glossary On
Versions: 1 2 3 4 5 6 7 8 9 10 11 12 13 14 15 16 17 18 19 20 21 22 23 24 25 26 27 28 29 30 31 32 33 34 35 36 37 38 39 40 41 42 43 44 45 46 47 48 49 50
483
ASUS42 KILM 180713
RWRILM
RWRILM
REGIONAL HOURLY WEATHER ROUNDUP
NATIONAL WEATHER SERVICE WILMINGTON NC
200 AM EST SAT NOV 18 2017

NOTE: "FAIR" INDICATES FEW OR NO CLOUDS BELOW 12,000 FEET WITH NO
SIGNIFICANT WEATHER AND/OR OBSTRUCTIONS TO VISIBILITY.

...............WFO WILMINGTON COUNTY WARNING AREA...............

......COASTAL NC AND SC COUNTIES......

CITY           SKY/WX    TMP DP  RH WIND       PRES   REMARKS
WILMINGTON     CLEAR     38  36  92 CALM      30.14S
N MYRTLE BEACH CLEAR     38  37  97 CALM      30.13S FOG
MYRTLE BEACH   CLEAR     40  39  97 CALM      30.15S

......INLAND NC AND SC COUNTIES.......

CITY           SKY/WX    TMP DP  RH WIND       PRES   REMARKS
LUMBERTON      CLEAR     29  29 100 CALM      30.13F
ELIZABETHTOWN  NOT AVBL
WHITEVILLE     CLEAR     36  35  94 CALM      30.14R
FLORENCE       CLEAR     35  33  92 CALM      30.13F
DARLINGTON     CLEAR     33  32  96 CALM      30.13F
KINGSTREE      FAIR      34  32  93 CALM      30.12F
HARTSVILLE     FAIR      37  36  93 SW3       30.12S
BENNETTSVILLE  FAIR      34  34 100 CALM      30.13S FOG
CONWAY         FAIR      32  32 100 CALM      30.13F
GEORGETOWN     FAIR      36  34  93 CALM      30.13F
MARION         FAIR      32  32 100 CALM      30.13F FOG

....................REST OF NORTH CAROLINA......................

.........EASTERN NC.........

CITY           SKY/WX    TMP DP  RH WIND       PRES   REMARKS
CAPE HATTERAS  CLEAR     37  36  96 CALM      30.13F
JACKSONVILLE   CLEAR     31  30  96 CALM      30.14F
MOREHEAD CITY  CLEAR     36  35  96 CALM      30.14S
KENANSVILLE    CLEAR     30  28  93 CALM      30.15S FOG
NEW BERN       PTCLDY    32  32 100 CALM      30.16S
ELIZABETH CITY CLEAR     34  34 100 CALM      30.13F

.........CENTRAL NC.........

CITY           SKY/WX    TMP DP  RH WIND       PRES   REMARKS
RALEIGH DURHAM CLEAR     35  32  88 CALM      30.11F
ROCKY MOUNT    CLEAR     31  31 100 CALM      30.13F
ROANOKE RAPIDS NOT AVBL
FAYETTEVILLE   CLEAR     33  33 100 CALM      30.12F
HOFFMAN        CLEAR     30  29  96 CALM      30.12F

.........WESTERN NC.........

CITY           SKY/WX    TMP DP  RH WIND       PRES   REMARKS
CHARLOTTE      PTCLDY    43  36  76 SE7       30.09F
GREENSBORO     MOCLDY    41  34  76 S8        30.06F
HICKORY        NOT AVBL
BOONE          NOT AVBL
ASHEVILLE      NOT AVBL

.....................REST OF SOUTH CAROLINA.....................

.........EASTERN SC.........

CITY           SKY/WX    TMP DP  RH WIND       PRES   REMARKS
CHARLESTON     CLEAR     43  42  97 CALM      30.10F
BEAUFORT MCAS  NOT AVBL
HILTON HEAD    CLEAR     55  52  88 NE6       30.10F

.........CENTRAL SC.........

CITY           SKY/WX    TMP DP  RH WIND       PRES   REMARKS
COLUMBIA       CLOUDY    37  36  96 CALM      30.12S
ORANGEBURG     CLEAR     38  36  92 CALM      30.12F
SUMTER SHAW    PTCLDY    37  33  87 CALM      30.10F

.........WESTERN SC.........

CITY           SKY/WX    TMP DP  RH WIND       PRES   REMARKS
GREENVILLE     NOT AVBL
ROCK HILL      PTCLDY    39  35  86 SW6       30.10F WCI  35
ANDERSON       MOCLDY    43  40  89 CALM      30.09F
CLEMSON        NOT AVBL
GREENWOOD      PTCLDY    38  37  97 SE3       30.10F


...................COASTAL AND OFFSHORE REPORTS..................

................LOCAL PIERS AND NC RESERVE................


STATION/POSITION TIME  SKY/WX   TEMP    WIND        PRES    VSBY
                                AIR SEA DIR/SP/G
                 (UTC)          (F)     (DEG/KT/KT) (MB)    (MI)
JOHNY MRCER PIER NOT AVBL
NC RESRV MASNBRO 0545            42     320/  2     1020.0
OCEAN CREST PIER NOT AVBL
SPRINGMAID  PIER NOT AVBL


................COASTAL AND OFFSHORE BUOYS................


STATION/POSITION TIME  SKY/WX   TEMP    WIND        PRES    VSBY
                                AIR SEA DIR/SP/G
                 (UTC)          (F)     (DEG/KT/KT) (MB)    (MI)
DIMNDSHOAL 41025 0650            55 64   30/  4/  8 1020.1F
WVE H/P(F/S)=  3/ 9 SWL H/P/D(F/S/D)=  3/ 70/ 9

CAPE LOOKOUT     0700            50     360/  6/  7 1020.6F
ONSLOW BAY 41036 NOT AVBL
ONSLOW BAY 41064 0608            58 70   80/  4/  6 1020.5F
ONSLOW BAY 41159 0700               70                N/A
WVE H/P(F/S)=  3/10 SWL H/P/D(F/S/D)=  2/ 80/11

MASNBO INL 41110 0659               64                N/A
WVE H/P(F/S)=  2/10 SWL H/P/D(F/S/D)=  2/100/13

WILM HARBR 41108 0700               64                N/A
WVE H/P(F/S)=  2/11 SWL H/P/D(F/S/D)=  2/130/11

27SE WRITB 41037 0608            59 67   70/  4/  8 1020.1F
FRYING PAN 41013 0650            63 71   40/  2/  4 1019.0F
WVE H/P(F/S)=  3/ 9 SWL H/P/D(F/S/D)=  3/ 90/ 9

SUNST NRSH 41024 0608            54 62   30/  2/  4 1020.2F
CAPRS NRSH 41029 0608            57 62   80/ 10/ 14 1019.5F
EDISTO     41004 0700            66     100/  4/  8 1018.8


..........OFFSHORE BUOYS BEYOND 100 NM OFFSHORE...........
.....IN A TRIANGLE---HAT TO BERMUDA TO BAHAMAS TO HAT.....


STATION/POSITION TIME  SKY/WX   TEMP    WIND        PRES    VSBY
                                AIR SEA DIR/SP/G
                 (UTC)          (F)     (DEG/KT/KT) (MB)    (MI)
150E HAT   41001 NOT AVBL
W BERMUDA  41048 0700            68      40/ 12/ 16 1017.2
ATLANTIC S 41049 0650            77 80   30/ 14/ 17 1010.8F
WVE H/P(F/S)=  6/12 SWL H/P/D(F/S/D)=  5/ 20/12

E BAHAMAS  41046 0700            80      40/ 17/ 21 1009.8
NE BAHAMAS 41047 0700            73      50/ 17/ 21 1014.5
120E CANVRL41010 NOT AVBL

END




USA.gov is the U.S. government's official web portal to all federal, state and local government web resources and services.